Dauntless Aviation
Airports Europe Spain
LECU
ECV

Cuatro Vientos Airport

Madrid, SPAIN

Airport Info
Suggest Updated Information for this Airport

Location

Latitude / Longitude: 40°22'14"N / 3°47'6"W
  40°22.242'N / 3°47.106'W
  40.3707 / -3.7851

Runway Information

Runway 10 /28

Dimensions: 4921 x 98 ft.
Surface: ASP
 
Runway 10
Runway 28
Latitude: 40.371122 40.370233
Longitude: -3.793928 -3.776353
Elevation: 2267 ft. 2267 ft.
Runway true heading: 91.3 271.3
 

Runway 10L/28R

Dimensions: 3697 x 148 ft.
Surface: ASP
 
Runway 10L
Runway 28R
Latitude: 40.372342 40.371622
Longitude: -3.790706 -3.777589
Elevation: 2264 ft. 2264 ft.
Runway true heading: 91.3 271.3
 

Instrument Procedures

  Aerodrome Chart 1.1
  Aerodrome Chart 1.2
  LEVS Parking / Docking Chart 1

IAPs (Instrument Approach Procedures)

  Aerodrome Information (Textual)
  Aerodrome Obstacle Chart Rwy 1 Rwy 09
  Aerodrome Obstacle Chart Rwy 2 Rwy 27
  Visual Approach Chart 1
Satellite photo at:
Airport distance calculator
From:
Weather Reports

METAR

LEMD
12.1nm NE
LEMD 180230Z 36003KT 300V030 CAVOK 23/14 Q1015 NOSIG
LETO
15.7nm NE
LETO 180200Z 04007KT CAVOK 23/15 Q1015 NOSIG

TAF

LEVS
0.9nm E
TAF LEVS 171700Z 1718/1803 VRB05KT CAVOK PROB30 TEMPO 1718/1721 20010KT PROB40 TEMPO 1718/1721 FEW040TCU BECMG 1722/1724 02010KT
LEGT
6.1nm SE
TAF LEGT 171700Z 1718/1803 VRB05KT CAVOK PROB30 TEMPO 1718/1721 22010KT PROB40 TEMPO 1718/1721 FEW040TCU BECMG 1722/1724 02010KT
LEMD
12.1nm NE
TAF LEMD 172300Z 1800/1906 02008KT CAVOK TX36/1816Z TN20/1805Z BECMG 1807/1809 VRB05KT BECMG 1820/1822 01010KT PROB40 TEMPO 1821/1902 01015G25KT
LETO
15.7nm NE
TAF LETO 172300Z 1800/1824 02008KT CAVOK TX36/1816Z TN20/1805Z BECMG 1807/1809 VRB05KT BECMG 1820/1822 01010KT PROB40 TEMPO 1821/1824 01015G25KT
LECV
16.1nm N
TAF LECV 171700Z 1718/1803 VRB05KT 9999 FEW040 PROB40 TEMPO 1718/1720 19010KT TEMPO 1718/1722 FEW040TCU PROB40 TEMPO 1718/1720 3000 TS SHRA SCT030CB
Safelog

 

Dauntless Aviation

© 2007-2019 Dauntless Aviation, all rights reserved
Information provided via PilotNav comes from a variety of official and unofficial data sources. As errors are possible, do not use PilotNav for primary flight planning purposes. Verify any information that you receive via PilotNav with current and canonical charts and other official documents. The material in this database is subject to database copyrights held by Dauntless Aviation and may not be copied without the express permission of Dauntless Aviation - licenses for use of part of all of this data are available for purchase; enquire via the Dauntless Aviation helpdesk. A number of mechanisms and markers exist in the database to protect against and identify infringement / copyright. Automated queries against this website are stictly prohibited, and all activity is logged and analyzed.